weather.gov     
National Weather Service

Regional Weather Roundup
NWS Homepage
This page is being discontinued on March 12, 2014.
The same data is available at this site. Please update your bookmarks.
Thank you, and we apologize for the inconvenience.
Please send an email to SR-SRH.Webmaster@noaa.gov with any concerns.


Current Version
Previous Version:    01  02  03  04  05  06  07  08  09  10  11  12  13  14  15  16  17  18  19  20  21  22  23  24  25  26  27  28  29  30  
   31  32  33  34  35  36  37  38  39  40  41  42  43  44  45  46  47  48  49  50  51  52  53  54  
[Printable]
597
ASUS43 KFSD 170110
RWRSD

WEATHER ROUNDUP FOR SOUTH DAKOTA
NATIONAL WEATHER SERVICE SIOUX FALLS SD
800 PM CDT WED APR 16 2014

NOTE: "FAIR" INDICATES FEW OR NO CLOUDS BELOW 12,000 FEET WITH NO
SIGNIFICANT WEATHER AND/OR OBSTRUCTIONS TO VISIBILITY.


SDZ001>005-009-010-012>017-170200-
NORTHWEST AND NORTH CENTRAL SOUTH DAKOTA

CITY           SKY/WX    TMP DP  RH WIND       PRES   REMARKS
BUFFALO          N/A     32  23  69 E15       30.05R WCI  22
FAITH            N/A     36  23  59 NE13      30.13R
MOBRIDGE       CLEAR     34  20  56 NE10      30.14R WCI  26
$$

SDZ012>016-024>037-041>051-057-063-072>074-170200-
SOUTHWEST AND SOUTH CENTRAL SOUTH DAKOTA

CITY           SKY/WX    TMP DP  RH WIND       PRES   REMARKS
RAPID CTY ARPT MOCLDY    36  25  64 NE15      30.09R
PIERRE         CLOUDY    35  24  64 NE9       30.14R WCI  28
CUSTER         HVY SNOW  29  27  92 E10       30.02R VSB 1/4 WCI  20
ELLSWORTH AFB  MOCLDY    36  25  65 E14       30.09R
PHILIP         CLOUDY    37  24  59 E10       30.13R
PINE RIDGE     PTCLDY    39  29  67 NE7       30.06R
SPEARFISH      FAIR      36  27  69 E13       30.06S
WINNER         CLOUDY    33  24  69 N15       30.13R WCI  23
$$

SDZ004>011-016>023-039-040-170200-
NORTHEAST SOUTH DAKOTA

CITY           SKY/WX    TMP DP  RH WIND       PRES   REMARKS
ABERDEEN       MOCLDY    32  23  69 NE12      30.15R WCI  23
WATERTOWN      CLOUDY    28  23  81 N22       30.05R HAZE    WCI  14
SISSETON         N/A     31  23  72 NE17G24   30.12R WCI  19
$$

SDZ017-020-022-023-036>040-048>070-170200-
SOUTHEAST SOUTH DAKOTA

CITY           SKY/WX    TMP DP  RH WIND       PRES   REMARKS
SIOUX FALLS    CLOUDY    30  27  88 N24G30    29.99R WCI  16
HURON          CLOUDY    32  25  75 N16G23    30.11R WCI  21
CHAMBERLAIN      N/A     33  26  75 N13       30.13R WCI  24
MITCHELL       CLOUDY    33  26  75 N22G29    30.09R WCI  21
YANKTON        CLOUDY    34  28  80 NW21G31   30.03R WCI  22
$$

ABBREVIATIONS USED IN REMARKS
   TC - TEMPERATURE IN CELSIUS
  WCI - WIND CHILL INDEX
   HX - HEAT INDEX
  VSB - VISIBILITY





U.S. Dept. of Commerce
NOAA National Weather Service
1325 East West Highway
Silver Spring, MD 20910
E-mail: w-nws.webmaster@noaa.gov
Page last modified: May 16, 2007
NATIONAL WEATHER SERVICE: for Safety, for Work, for Fun - FOR LIFE